SAS2831 EKCH-LDSP

Flight info

Callsign SAS2831
Flight time N/A
Altitude 33000
Route SALLO M44 KOGIM DCT LUROS DCT HDO DCT PISAM DCT PETOV DCT NUPSO
Aircraft MD82/M-SDFGHRWY/C

Departure

Time N/A
Airport Copenhagen Kastrup Airport (EKCH)

Arrival

Time 2026-04-30 12:55
Airport Split Saint Jerome Airport (LDSP)
Time Latitude Longitude Altitude Speed Heading
2026-04-30 12:23 46.56515 15.92050 33393 ft 476 kts 172°
2026-04-30 12:23 46.53258 15.92763 33387 ft 476 kts 172°
2026-04-30 12:23 46.46692 15.94199 33585 ft 478 kts 172°
2026-04-30 12:24 46.43400 15.94918 33816 ft 477 kts 172°
2026-04-30 12:24 46.40132 15.95634 34080 ft 475 kts 172°
2026-04-30 12:24 46.36866 15.96362 34337 ft 473 kts 172°
2026-04-30 12:24 46.33609 15.97090 34554 ft 473 kts 172°
2026-04-30 12:25 46.27051 15.97643 34787 ft 473 kts 184°
2026-04-30 12:25 46.23777 15.97369 35018 ft 471 kts 185°
2026-04-30 12:25 46.20500 15.97062 35209 ft 470 kts 185°
2026-04-30 12:26 46.13946 15.96532 35336 ft 474 kts 184°
2026-04-30 12:26 46.07358 15.96131 35369 ft 473 kts 184°
2026-04-30 12:27 46.00805 15.95783 35372 ft 470 kts 184°
2026-04-30 12:27 45.94286 15.95420 35371 ft 469 kts 184°
2026-04-30 12:28 45.87753 15.95044 35364 ft 470 kts 184°
2026-04-30 12:28 45.81216 15.94669 35375 ft 471 kts 184°
2026-04-30 12:29 45.74663 15.94295 35368 ft 470 kts 184°
2026-04-30 12:29 45.68120 15.93919 35371 ft 471 kts 184°
2026-04-30 12:30 45.61566 15.93542 35369 ft 471 kts 184°
2026-04-30 12:30 45.55010 15.93167 35364 ft 472 kts 184°
2026-04-30 12:31 45.48497 15.92796 35363 ft 472 kts 184°
2026-04-30 12:31 45.41939 15.92422 35364 ft 472 kts 185°
2026-04-30 12:32 45.35370 15.92046 35360 ft 472 kts 185°
2026-04-30 12:32 45.28809 15.91673 35356 ft 471 kts 185°
2026-04-30 12:33 45.22260 15.91302 35352 ft 471 kts 185°
2026-04-30 12:33 45.15724 15.90932 35349 ft 470 kts 185°
2026-04-30 12:34 45.09296 15.90563 35346 ft 471 kts 185°
2026-04-30 12:34 45.02751 15.90197 35346 ft 471 kts 185°
2026-04-30 12:35 44.96201 15.89828 35339 ft 471 kts 186°
2026-04-30 12:35 44.89644 15.89459 35331 ft 471 kts 186°
2026-04-30 12:36 44.83096 15.89090 35306 ft 471 kts 186°
2026-04-30 12:36 44.76553 15.88724 35292 ft 470 kts 186°
2026-04-30 12:37 44.70020 15.88358 35212 ft 471 kts 186°
2026-04-30 12:37 44.66721 15.88169 34695 ft 478 kts 186°
2026-04-30 12:37 44.63399 15.87979 34116 ft 478 kts 186°
2026-04-30 12:38 44.60083 15.87801 33483 ft 475 kts 187°
2026-04-30 12:38 44.56786 15.87626 32818 ft 473 kts 187°
2026-04-30 12:38 44.53504 15.87444 32155 ft 470 kts 187°
2026-04-30 12:38 44.50253 15.87262 31504 ft 465 kts 187°
2026-04-30 12:39 44.47046 15.87079 30853 ft 458 kts 186°
2026-04-30 12:39 44.43879 15.86901 30227 ft 452 kts 186°
2026-04-30 12:39 44.40754 15.86729 29603 ft 447 kts 187°
2026-04-30 12:39 44.37672 15.86555 28980 ft 441 kts 186°
2026-04-30 12:40 44.34629 15.86381 28377 ft 435 kts 186°
2026-04-30 12:40 44.31629 15.86211 27881 ft 427 kts 186°
2026-04-30 12:40 44.28694 15.86051 27446 ft 418 kts 186°
2026-04-30 12:40 44.25817 15.85896 27093 ft 408 kts 186°
2026-04-30 12:41 44.23023 15.85746 26849 ft 402 kts 186°
2026-04-30 12:41 44.20163 15.85581 26190 ft 422 kts 186°
2026-04-30 12:41 44.17197 15.85400 25768 ft 423 kts 185°
2026-04-30 12:41 44.14282 15.85363 25226 ft 419 kts 175°
2026-04-30 12:42 44.11459 15.86364 24494 ft 421 kts 157°
2026-04-30 12:42 44.08846 15.88140 23910 ft 416 kts 152°
2026-04-30 12:42 44.06317 15.90048 23334 ft 411 kts 151°
2026-04-30 12:42 44.03827 15.91954 22703 ft 407 kts 151°
2026-04-30 12:43 44.01355 15.93839 22074 ft 404 kts 152°
2026-04-30 12:43 43.98897 15.95677 21469 ft 399 kts 152°
2026-04-30 12:43 43.96453 15.97465 20844 ft 395 kts 152°
2026-04-30 12:43 43.94039 15.99200 20038 ft 387 kts 153°
2026-04-30 12:44 43.91656 16.00894 19089 ft 384 kts 153°
2026-04-30 12:44 43.89291 16.02562 18183 ft 379 kts 153°
2026-04-30 12:44 43.86843 16.03830 17249 ft 374 kts 171°
2026-04-30 12:44 43.84221 16.03947 15702 ft 392 kts 189°
2026-04-30 12:45 43.81561 16.03259 14863 ft 384 kts 193°
2026-04-30 12:45 43.78986 16.02454 13966 ft 378 kts 194°
2026-04-30 12:45 43.76444 16.01640 13064 ft 371 kts 193°
2026-04-30 12:45 43.73932 16.00877 12063 ft 367 kts 192°
2026-04-30 12:46 43.71445 16.00180 11092 ft 362 kts 190°
2026-04-30 12:46 43.68978 15.99532 10075 ft 360 kts 189°
2026-04-30 12:46 43.66527 15.98913 9099 ft 359 kts 188°
2026-04-30 12:46 43.64101 15.98307 8604 ft 345 kts 188°
2026-04-30 12:47 43.61807 15.97729 8179 ft 325 kts 189°
2026-04-30 12:47 43.59632 15.97177 7715 ft 312 kts 189°
2026-04-30 12:47 43.57528 15.96635 7241 ft 305 kts 189°
2026-04-30 12:47 43.55450 15.96095 6728 ft 303 kts 189°
2026-04-30 12:48 43.53392 15.95564 6256 ft 299 kts 189°
2026-04-30 12:48 43.51360 15.95044 5783 ft 296 kts 189°
2026-04-30 12:48 43.49338 15.94878 5319 ft 287 kts 167°
2026-04-30 12:48 43.47564 15.95822 4945 ft 265 kts 145°
2026-04-30 12:49 43.46059 15.97156 4564 ft 254 kts 143°
2026-04-30 12:49 43.44567 15.98460 4233 ft 256 kts 144°
2026-04-30 12:49 43.43042 15.99740 3981 ft 257 kts 145°
2026-04-30 12:49 43.41524 16.01024 3847 ft 252 kts 142°
2026-04-30 12:50 43.40386 16.02680 3730 ft 230 kts 110°
2026-04-30 12:50 43.40184 16.04766 3611 ft 221 kts 71°
2026-04-30 12:50 43.40919 16.06551 3522 ft 214 kts 51°
2026-04-30 12:50 43.41812 16.08189 3456 ft 213 kts 51°
2026-04-30 12:51 43.42682 16.09757 3322 ft 199 kts 50°
2026-04-30 12:51 43.43507 16.11189 3187 ft 183 kts 49°
2026-04-30 12:51 43.44033 16.12087 3042 ft 181 kts 50°
2026-04-30 12:51 43.44787 16.13448 2821 ft 177 kts 50°
2026-04-30 12:52 43.45531 16.14787 2582 ft 175 kts 51°
2026-04-30 12:52 43.46274 16.16093 2316 ft 173 kts 50°
2026-04-30 12:52 43.47005 16.17413 2044 ft 168 kts 51°
2026-04-30 12:52 43.47696 16.18660 1794 ft 163 kts 51°
2026-04-30 12:53 43.48356 16.19847 1575 ft 153 kts 51°
2026-04-30 12:53 43.48980 16.20967 1450 ft 145 kts 51°
2026-04-30 12:53 43.49569 16.22035 1296 ft 143 kts 51°
2026-04-30 12:53 43.50156 16.23085 1099 ft 137 kts 50°
2026-04-30 12:54 43.50720 16.24086 854 ft 130 kts 52°
2026-04-30 12:54 43.51269 16.25071 663 ft 131 kts 51°
2026-04-30 12:54 43.51801 16.26040 546 ft 127 kts 52°
2026-04-30 12:54 43.52250 16.26879 422 ft 131 kts 53°
2026-04-30 12:55 43.52832 16.27876 273 ft 137 kts 49°
2026-04-30 12:55 43.53396 16.28896 89 ft 132 kts 52°
2026-04-30 12:55 43.53835 16.29684 83 ft 79 kts 53°
2026-04-30 12:55 43.54062 16.30094 65 ft 37 kts 52°
2026-04-30 12:56 43.54151 16.30219 74 ft 0 kts 49°
2026-04-30 12:56 43.54152 16.30230 73 ft 3 kts 84°
2026-04-30 12:56 43.54147 16.30243 65 ft 2 kts 150°
2026-04-30 12:56 43.54133 16.30242 74 ft 1 kts 204°
2026-04-30 12:57 43.54121 16.30220 68 ft 7 kts 233°
2026-04-30 12:57 43.54064 16.30133 75 ft 18 kts 216°
2026-04-30 12:57 43.53933 16.30071 68 ft 22 kts 197°
2026-04-30 12:57 43.53851 16.29963 67 ft 14 kts 236°
2026-04-30 12:58 43.53797 16.29864 69 ft 12 kts 232°
2026-04-30 12:58 43.53762 16.29804 69 ft 0 kts 205°
2026-04-30 12:58 43.53758 16.29803 69 ft 1 kts 191°
2026-04-30 12:58 43.53747 16.29806 69 ft 3 kts 162°
2026-04-30 12:59 43.53738 16.29825 67 ft 3 kts 105°
2026-04-30 12:59 43.53730 16.29857 66 ft 2 kts 112°
2026-04-30 12:59 43.53727 16.29866 69 ft 0 kts 113°